WX1N Weather Reports


Display with metric or nautical units.
time (UTC)temp
F
wind
direction
speed
MPH
gust
MPH
rain 1hr
in
rain 24hr
in
rain mn
in
humidity
%
barometer
mb
20260901064003 62 0 0.0 0.0 0.00 0.00 0.00 67 1017.0
20260901063503 62 0 0.0 0.0 0.00 0.00 0.00 67 1017.0
20260901063003 62 0 0.0 0.0 0.00 0.00 0.00 67 1016.9
20260901062502 62 0 0.0 0.0 0.00 0.00 0.00 67 1016.8
20260901062003 62 0 0.0 0.0 0.00 0.00 0.00 66 1016.7
20260901061503 62 0 0.0 0.0 0.00 0.00 0.00 67 1017.1
20260901061003 62 0 0.0 0.0 0.00 0.00 0.00 67 1016.9
20260901060503 62 0 0.0 0.0 0.00 0.00 0.00 66 1017.0
20260901060003 62 0 0.0 0.0 0.00 0.00 0.00 66 1017.1
20260901055503 62 0 0.0 0.0 0.00 0.00 0.00 66 1017.1
20260901055003 62 0 0.0 0.0 0.00 0.00 0.00 65 1017.2
20260901054503 62 0 0.0 0.0 0.00 0.00 0.00 65 1017.1
20260901054003 62 0 0.0 0.0 0.00 0.00 0.00 63 1017.0
20260901053503 62 0 0.0 0.0 0.00 0.00 0.00 62 1017.0
20260901053003 62 0 0.0 0.0 0.00 0.00 0.00 61 1017.0
20260901052503 62 0 0.0 0.0 0.00 0.00 0.00 61 1017.0
20260901052003 62 0 0.0 0.0 0.00 0.00 0.00 60 1017.1
20260901051503 62 0 0.0 0.0 0.00 0.00 0.00 59 1017.2
20260901051003 62 0 0.0 0.0 0.00 0.00 0.00 58 1017.4
20260901050503 62 0 0.0 0.0 0.00 0.00 0.00 58 1017.4
20260901050003 62 0 0.0 0.0 0.00 0.00 0.00 58 1017.3
20260901045504 62 0 0.0 0.0 0.00 0.00 0.00 57 1017.1
20260901045002 62 0 0.0 0.0 0.00 0.00 0.00 55 1017.2
20260901044505 61 0 0.0 0.0 0.00 0.00 0.00 58 1017.2
20260901044003 61 0 0.0 0.0 0.00 0.00 0.00 60 1017.2
20260901043503 61 0 0.0 0.0 0.00 0.00 0.00 61 1017.1
20260901043003 62 0 0.0 0.0 0.00 0.00 0.00 62 1017.0
20260901042503 62 0 0.0 0.0 0.00 0.00 0.00 63 1016.9
20260901042003 62 0 0.0 0.0 0.00 0.00 0.00 63 1017.0
20260901041503 62 0 0.0 0.0 0.00 0.00 0.00 63 1017.1
20260901041003 62 0 0.0 0.0 0.00 0.00 0.00 63 1016.9
20260901040503 63 0 0.0 0.0 0.00 0.00 0.00 62 1016.8
20260901040004 63 0 0.0 0.0 0.00 0.00 0.00 60 1016.9
20260901035503 63 0 0.0 0.0 0.00 0.00 0.00 59 1016.8
20260901035003 63 0 0.0 0.0 0.00 0.00 0.00 59 1016.9
20260901034503 63 0 0.0 0.0 0.00 0.00 0.00 59 1016.7
20260901034003 63 0 0.0 0.0 0.00 0.00 0.00 59 1016.8
20260901033503 63 0 0.0 0.0 0.00 0.00 0.00 59 1016.9
20260901033003 63 0 0.0 0.0 0.00 0.00 0.00 59 1016.9
20260901032503 63 0 0.0 0.0 0.00 0.00 0.00 59 1017.1
20260901032004 63 0 0.0 0.0 0.00 0.00 0.00 58 1017.1
20260901031504 63 0 0.0 0.0 0.00 0.00 0.00 56 1017.0
20260901031003 63 0 0.0 0.0 0.00 0.00 0.00 55 1017.0
20260901030503 63 0 0.0 0.0 0.00 0.00 0.00 58 1016.9
20260901030003 63 0 0.0 0.0 0.00 0.00 0.00 58 1016.9
20260901025503 63 0 0.0 0.0 0.00 0.00 0.00 60 1017.0
20260901025003 62 0 0.0 0.0 0.00 0.00 0.00 60 1017.0
20260901024503 63 0 0.0 0.0 0.00 0.00 0.00 60 1017.0
20260901024003 62 0 0.0 0.0 0.00 0.00 0.00 60 1017.0
20260901023503 62 0 0.0 0.0 0.00 0.00 0.00 60 1017.1
20260901023003 62 0 0.0 0.0 0.00 0.00 0.00 60 1017.1
20260901022503 62 0 0.0 0.0 0.00 0.00 0.00 60 1017.1
20260901022003 62 0 0.0 0.0 0.00 0.00 0.00 60 1017.0
20260901021504 62 0 0.0 0.0 0.00 0.00 0.00 61 1017.1
20260901021004 62 0 0.0 0.0 0.00 0.00 0.00 64 1017.0
20260901020504 62 0 0.0 0.0 0.00 0.00 0.00 63 1016.9
20260901020004 62 0 0.0 0.0 0.00 0.00 0.00 64 1016.9
20260901015503 62 0 0.0 0.0 0.00 0.00 0.00 66 1016.8
20260901015003 62 0 0.0 0.0 0.00 0.00 0.00 67 1016.9
20260901014503 62 0 0.0 0.0 0.00 0.00 0.00 67 1016.9
20260901014003 62 0 0.0 0.0 0.00 0.00 0.00 66 1016.9
20260901013503 62 0 0.0 0.0 0.00 0.00 0.00 67 1016.9
20260901013003 62 0 0.0 0.0 0.00 0.00 0.00 69 1016.9
20260901012503 62 0 0.0 0.0 0.00 0.00 0.00 70 1016.8
20260901012003 62 0 0.0 0.0 0.00 0.00 0.00 73 1016.8
20260901011503 63 0 0.0 0.0 0.00 0.00 0.00 74 1016.7
20260901011004 63 0 0.0 0.0 0.00 0.00 0.00 75 1016.7
20260901010504 63 0 0.0 0.0 0.00 0.00 0.00 75 1016.8
20260901010004 63 0 0.0 0.0 0.00 0.00 0.00 76 1016.8
20260901005503 64 0 0.0 0.0 0.00 0.00 0.00 77 1016.9
20260901005003 64 0 0.0 0.0 0.00 0.00 0.00 77 1016.9
20260901004503 64 0 0.0 0.0 0.00 0.00 0.00 77 1016.9
20260901004003 64 0 0.0 0.0 0.00 0.00 0.00 77 1016.9
20260901003503 64 0 0.0 0.0 0.00 0.00 0.00 78 1016.8
20260901003003 64 0 0.0 0.0 0.00 0.00 0.00 79 1016.9
20260901002503 65 0 0.0 0.0 0.00 0.00 0.00 79 1016.8
20260901002004 65 0 0.0 0.0 0.00 0.00 0.00 80 1016.8
20260901001503 65 0 0.0 0.0 0.00 0.00 0.00 80 1016.7
20260901001003 65 0 0.0 0.0 0.00 0.00 0.00 80 1016.7
20260901000503 65 0 0.0 0.0 0.00 0.00 0.00 80 1016.6
20260901000004 66 0 0.0 0.0 0.00 0.00 0.00 81 1016.7
20260831235504 66 0 0.0 0.0 0.00 0.00 0.00 81 1016.6
20260831235004 66 0 0.0 0.0 0.00 0.00 0.00 81 1016.6
20260831234503 66 0 0.0 0.0 0.00 0.00 0.00 81 1016.7
20260831234003 66 0 0.0 0.0 0.00 0.00 0.00 81 1016.7
20260831233503 66 0 0.0 0.0 0.00 0.00 0.00 81 1016.7
20260831233003 67 0 0.0 0.0 0.00 0.00 0.00 81 1016.8
20260831232503 67 0 0.0 0.0 0.00 0.00 0.00 81 1016.6
20260831232004 67 0 0.0 0.0 0.00 0.00 0.00 80 1016.7
20260831231505 68 0 0.0 0.0 0.00 0.00 0.00 80 1016.8
20260831231004 68 0 0.0 0.0 0.00 0.00 0.00 80 1016.8
20260831230503 68 0 0.0 0.0 0.00 0.00 0.00 80 1016.9
20260831230003 68 0 0.0 0.0 0.00 0.00 0.00 79 1017.0
20260831225503 68 0 0.0 0.0 0.00 0.00 0.00 78 1017.1
20260831225004 68 0 0.0 0.0 0.00 0.00 0.00 79 1017.1
20260831224503 68 0 0.0 0.0 0.00 0.00 0.00 77 1017.1
20260831224003 69 0 0.0 0.0 0.00 0.00 0.00 76 1017.1
20260831223503 69 0 0.0 0.0 0.00 0.00 0.00 76 1017.1
20260831223003 70 0 0.0 0.0 0.00 0.00 0.00 74 1017.0
20260831222503 71 0 0.0 0.0 0.00 0.00 0.00 72 1017.0
20260831222003 72 0 0.0 0.0 0.00 0.00 0.00 71 1017.0
20260831221503 73 0 0.0 0.0 0.00 0.00 0.00 73 1017.0
20260831221003 73 0 0.0 0.0 0.00 0.00 0.00 72 1017.0
20260831220503 74 0 0.0 0.0 0.00 0.00 0.00 68 1017.0
20260831220004 74 0 0.0 0.0 0.00 0.00 0.00 64 1016.8
20260831215503 74 0 0.0 0.0 0.00 0.00 0.00 62 1016.8
20260831215004 74 0 0.0 0.0 0.00 0.00 0.00 61 1016.9
20260831214503 75 0 0.0 0.0 0.00 0.00 0.00 66 1016.8
20260831214003 75 0 0.0 0.0 0.00 0.00 0.00 69 1016.8
20260831213503 75 0 0.0 0.0 0.00 0.00 0.00 66 1016.8
20260831213003 75 0 0.0 0.0 0.00 0.00 0.00 61 1016.8
20260831212503 75 0 0.0 0.0 0.00 0.00 0.00 63 1016.8
20260831212003 75 0 0.0 0.0 0.00 0.00 0.00 63 1016.8
20260831211503 75 0 0.0 0.0 0.00 0.00 0.00 67 1016.8
20260831211003 75 0 0.0 0.0 0.00 0.00 0.00 67 1016.7
20260831210503 76 0 0.0 0.0 0.00 0.00 0.00 69 1016.8
20260831210003 76 0 0.0 0.0 0.00 0.00 0.00 71 1016.9
20260831205503 76 0 0.0 0.0 0.00 0.00 0.00 66 1016.8
20260831205003 77 0 0.0 0.0 0.00 0.00 0.00 61 1016.8
20260831204503 77 0 0.0 0.0 0.00 0.00 0.00 57 1017.0
20260831204004 77 0 0.0 0.0 0.00 0.00 0.00 58 1017.0
20260831203503 77 0 0.0 0.0 0.00 0.00 0.00 58 1017.1
20260831203003 77 0 0.0 0.0 0.00 0.00 0.00 57 1017.2
20260831202503 78 0 0.0 0.0 0.00 0.00 0.00 57 1017.2
20260831202003 78 0 0.0 0.0 0.00 0.00 0.00 62 1017.2
20260831201503 78 0 0.0 0.0 0.00 0.00 0.00 59 1017.2
20260831201004 77 0 0.0 0.0 0.00 0.00 0.00 57 1017.2
20260831200504 77 0 0.0 0.0 0.00 0.00 0.00 60 1017.2
20260831200004 78 0 0.0 0.0 0.00 0.00 0.00 57 1017.3
20260831195503 78 0 0.0 0.0 0.00 0.00 0.00 55 1017.3
20260831195003 79 0 0.0 0.0 0.00 0.00 0.00 56 1017.3
20260831194503 80 0 0.0 0.0 0.00 0.00 0.00 56 1017.4
20260831194003 80 0 0.0 0.0 0.00 0.00 0.00 57 1017.5
20260831193503 81 0 0.0 0.0 0.00 0.00 0.00 54 1017.5
20260831193003 83 0 0.0 0.0 0.00 0.00 0.00 52 1017.5
20260831192503 84 0 0.0 0.0 0.00 0.00 0.00 49 1017.5
20260831192003 85 0 0.0 0.0 0.00 0.00 0.00 51 1017.5
20260831191503 85 0 0.0 0.0 0.00 0.00 0.00 49 1017.5
20260831191004 86 0 0.0 0.0 0.00 0.00 0.00 51 1017.6
20260831190503 86 0 0.0 0.0 0.00 0.00 0.00 50 1017.5
20260831190003 86 0 0.0 0.0 0.00 0.00 0.00 51 1017.6
20260831185503 86 0 0.0 0.0 0.00 0.00 0.00 49 1017.6
20260831185003 86 0 0.0 0.0 0.00 0.00 0.00 51 1017.6
20260831184503 85 0 0.0 0.0 0.00 0.00 0.00 52 1017.7
20260831184004 85 0 0.0 0.0 0.00 0.00 0.00 51 1017.7
20260831183503 84 0 0.0 0.0 0.00 0.00 0.00 49 1017.7
20260831183004 84 0 0.0 0.0 0.00 0.00 0.00 51 1017.9
20260831182504 84 0 0.0 0.0 0.00 0.00 0.00 49 1018.0
20260831182003 84 0 0.0 0.0 0.00 0.00 0.00 49 1018.1
20260831181503 83 0 0.0 0.0 0.00 0.00 0.00 54 1018.1
20260831181003 84 0 0.0 0.0 0.00 0.00 0.00 52 1018.2
20260831180503 84 0 0.0 0.0 0.00 0.00 0.00 50 1018.2
20260831180003 84 0 0.0 0.0 0.00 0.00 0.00 51 1018.4
20260831175503 83 0 0.0 0.0 0.00 0.00 0.00 50 1018.4
20260831175004 83 0 0.0 0.0 0.00 0.00 0.00 52 1018.4
20260831174504 83 0 0.0 0.0 0.00 0.00 0.00 50 1018.4
20260831174004 82 0 0.0 0.0 0.00 0.00 0.00 52 1018.5
20260831173503 81 0 0.0 0.0 0.00 0.00 0.00 57 1018.6
20260831173003 81 0 0.0 0.0 0.00 0.00 0.00 56 1018.7
20260831172503 81 0 0.0 0.0 0.00 0.00 0.00 54 1018.7
20260831172003 81 0 0.0 0.0 0.00 0.00 0.00 54 1018.8
20260831171503 81 0 0.0 0.0 0.00 0.00 0.00 54 1018.8
20260831171004 80 0 0.0 0.0 0.00 0.00 0.00 56 1018.8
20260831170504 80 0 0.0 0.0 0.00 0.00 0.00 58 1018.8
20260831170004 79 0 0.0 0.0 0.00 0.00 0.00 56 1018.9
20260831165504 79 0 0.0 0.0 0.00 0.00 0.00 51 1019.0
20260831165004 80 0 0.0 0.0 0.00 0.00 0.00 52 1019.1
20260831164504 79 0 0.0 0.0 0.00 0.00 0.00 50 1019.2
20260831164004 80 0 0.0 0.0 0.00 0.00 0.00 53 1019.2
20260831163503 79 0 0.0 0.0 0.00 0.00 0.00 52 1019.3
20260831163003 78 0 0.0 0.0 0.00 0.00 0.00 55 1019.3
20260831162503 78 0 0.0 0.0 0.00 0.00 0.00 61 1019.4
20260831162004 78 0 0.0 0.0 0.00 0.00 0.00 54 1019.5
20260831161503 77 0 0.0 0.0 0.00 0.00 0.00 58 1019.5
20260831161004 77 0 0.0 0.0 0.00 0.00 0.00 61 1019.5
20260831160504 76 0 0.0 0.0 0.00 0.00 0.00 59 1019.5
20260831160004 76 0 0.0 0.0 0.00 0.00 0.00 54 1019.6
20260831155504 76 0 0.0 0.0 0.00 0.00 0.00 59 1019.6
20260831155003 77 0 0.0 0.0 0.00 0.00 0.00 59 1019.8
20260831154503 77 0 0.0 0.0 0.00 0.00 0.00 62 1019.9
20260831154003 76 0 0.0 0.0 0.00 0.00 0.00 62 1019.9
20260831153503 76 0 0.0 0.0 0.00 0.00 0.00 64 1019.9
20260831153003 75 0 0.0 0.0 0.00 0.00 0.00 66 1019.9
20260831152503 74 0 0.0 0.0 0.00 0.00 0.00 66 1019.8
20260831152004 73 0 0.0 0.0 0.00 0.00 0.00 67 1019.8
20260831151504 73 0 0.0 0.0 0.00 0.00 0.00 73 1019.8
20260831151003 72 0 0.0 0.0 0.00 0.00 0.00 72 1019.8
20260831150503 71 0 0.0 0.0 0.00 0.00 0.00 70 1019.8
20260831150003 71 0 0.0 0.0 0.00 0.00 0.00 73 1019.8
20260831145503 70 0 0.0 0.0 0.00 0.00 0.00 76 1019.9
20260831145003 70 0 0.0 0.0 0.00 0.00 0.00 78 1019.8
20260831144503 70 0 0.0 0.0 0.00 0.00 0.00 80 1019.9
20260831144004 69 0 0.0 0.0 0.00 0.00 0.00 80 1020.0
20260831143504 68 0 0.0 0.0 0.00 0.00 0.00 79 1020.1
20260831143004 68 0 0.0 0.0 0.00 0.00 0.00 80 1020.1
20260831142503 68 0 0.0 0.0 0.00 0.00 0.00 80 1020.2
20260831142003 67 0 0.0 0.0 0.00 0.00 0.00 80 1020.2
20260831141503 67 0 0.0 0.0 0.00 0.00 0.00 80 1020.3
20260831141003 66 0 0.0 0.0 0.00 0.00 0.00 80 1020.2
20260831140503 66 0 0.0 0.0 0.00 0.00 0.00 78 1020.3
20260831140004 65 0 0.0 0.0 0.00 0.00 0.00 79 1020.3
20260831135504 65 0 0.0 0.0 0.00 0.00 0.00 79 1020.2
20260831135004 64 0 0.0 0.0 0.00 0.00 0.00 76 1020.3
20260831134504 64 0 0.0 0.0 0.00 0.00 0.00 76 1020.3
20260831134003 64 0 0.0 0.0 0.00 0.00 0.00 67 1020.2
20260831133503 63 0 0.0 0.0 0.00 0.00 0.00 56 1020.1
20260831133003 62 0 0.0 0.0 0.00 0.00 0.00 58 1020.1
20260831132503 62 0 0.0 0.0 0.00 0.00 0.00 58 1020.1
20260831132003 62 0 0.0 0.0 0.00 0.00 0.00 55 1020.0
20260831131504 62 0 0.0 0.0 0.00 0.00 0.00 50 1020.0
20260831131004 61 0 0.0 0.0 0.00 0.00 0.00 50 1020.1
20260831130504 61 0 0.0 0.0 0.00 0.00 0.00 51 1020.1
20260831130004 61 0 0.0 0.0 0.00 0.00 0.00 47 1020.1
20260831125504 61 0 0.0 0.0 0.00 0.00 0.00 46 1020.2
20260831125004 61 0 0.0 0.0 0.00 0.00 0.00 44 1020.1
20260831124503 60 0 0.0 0.0 0.00 0.00 0.00 43 1020.2
20260831124003 60 0 0.0 0.0 0.00 0.00 0.00 44 1020.1
20260831123503 60 0 0.0 0.0 0.00 0.00 0.00 44 1020.1
20260831123003 60 0 0.0 0.0 0.00 0.00 0.00 43 1020.1
20260831122504 60 0 0.0 0.0 0.00 0.00 0.00 43 1020.0
20260831122004 60 0 0.0 0.0 0.00 0.00 0.00 43 1020.0
20260831121504 60 0 0.0 0.0 0.00 0.00 0.00 43 1020.0
20260831121003 59 0 0.0 0.0 0.00 0.00 0.00 43 1020.0
20260831120503 59 0 0.0 0.0 0.00 0.00 0.00 44 1020.1
20260831120003 59 0 0.0 0.0 0.00 0.00 0.00 44 1020.1
20260831115503 59 0 0.0 0.0 0.00 0.00 0.00 44 1020.1
20260831115003 59 0 0.0 0.0 0.00 0.00 0.00 44 1020.1
20260831114504 59 0 0.0 0.0 0.00 0.00 0.00 44 1020.0
20260831114004 59 0 0.0 0.0 0.00 0.00 0.00 44 1019.9
20260831113504 59 0 0.0 0.0 0.00 0.00 0.00 44 1019.9
20260831113004 58 0 0.0 0.0 0.00 0.00 0.00 44 1019.8
20260831112503 58 0 0.0 0.0 0.00 0.00 0.00 44 1019.8
20260831112003 58 0 0.0 0.0 0.00 0.00 0.00 45 1019.8
20260831111503 58 0 0.0 0.0 0.00 0.00 0.00 45 1019.7
20260831111003 58 0 0.0 0.0 0.00 0.00 0.00 45 1019.7
20260831110503 57 0 0.0 0.0 0.00 0.00 0.00 46 1019.7
20260831110004 56 0 0.0 0.0 0.00 0.00 0.00 46 1019.6
20260831105504 56 0 0.0 0.0 0.00 0.00 0.00 46 1019.6
20260831105004 56 0 0.0 0.0 0.00 0.00 0.00 46 1019.5
20260831104504 56 0 0.0 0.0 0.00 0.00 0.00 46 1019.4
20260831104004 56 0 0.0 0.0 0.00 0.00 0.00 47 1019.5
20260831103503 56 0 0.0 0.0 0.00 0.00 0.00 47 1019.5
20260831103003 56 0 0.0 0.0 0.00 0.00 0.00 47 1019.5
20260831102503 56 0 0.0 0.0 0.00 0.00 0.00 47 1019.5
20260831102003 56 0 0.0 0.0 0.00 0.00 0.00 47 1019.4
20260831101504 56 0 0.0 0.0 0.00 0.00 0.00 47 1019.4
20260831101004 56 0 0.0 0.0 0.00 0.00 0.00 47 1019.4
20260831100504 55 0 0.0 0.0 0.00 0.00 0.00 47 1019.4
20260831100004 55 0 0.0 0.0 0.00 0.00 0.00 47 1019.4
20260831095503 55 0 0.0 0.0 0.00 0.00 0.00 48 1019.4
20260831095003 55 0 0.0 0.0 0.00 0.00 0.00 48 1019.3
20260831094503 55 0 0.0 0.0 0.00 0.00 0.00 48 1019.2
20260831094003 54 0 0.0 0.0 0.00 0.00 0.00 49 1019.3
20260831093503 54 0 0.0 0.0 0.00 0.00 0.00 49 1019.2
20260831093003 54 0 0.0 0.0 0.00 0.00 0.00 50 1019.2
20260831092504 54 0 0.0 0.0 0.00 0.00 0.00 50 1019.2
20260831092004 54 0 0.0 0.0 0.00 0.00 0.00 50 1019.1
20260831091504 54 0 0.0 0.0 0.00 0.00 0.00 50 1019.1
20260831091003 54 0 0.0 0.0 0.00 0.00 0.00 50 1019.0
20260831090503 54 0 0.0 0.0 0.00 0.00 0.00 50 1019.0
20260831090003 54 0 0.0 0.0 0.00 0.00 0.00 51 1019.0
20260831085503 54 0 0.0 0.0 0.00 0.00 0.00 50 1018.9
20260831085004 54 0 0.0 0.0 0.00 0.00 0.00 51 1018.9
20260831084504 55 0 0.0 0.0 0.00 0.00 0.00 50 1018.8
20260831084004 55 0 0.0 0.0 0.00 0.00 0.00 49 1018.8
20260831083504 55 0 0.0 0.0 0.00 0.00 0.00 49 1018.7
20260831083004 55 0 0.0 0.0 0.00 0.00 0.00 49 1018.7
20260831082504 55 0 0.0 0.0 0.00 0.00 0.00 50 1018.6
20260831082004 55 0 0.0 0.0 0.00 0.00 0.00 50 1018.6
20260831081503 55 0 0.0 0.0 0.00 0.00 0.00 51 1018.6
20260831081003 55 0 0.0 0.0 0.00 0.00 0.00 51 1018.6
20260831080503 55 0 0.0 0.0 0.00 0.00 0.00 53 1018.5
20260831080007 56 0 0.0 0.0 0.00 0.00 0.00 53 1018.6
20260831075504 56 0 0.0 0.0 0.00 0.00 0.00 52 1018.6
20260831075003 56 0 0.0 0.0 0.00 0.00 0.00 50 1018.4
20260831074503 57 0 0.0 0.0 0.00 0.00 0.00 50 1018.4
20260831074003 57 0 0.0 0.0 0.00 0.00 0.00 49 1018.4
20260831073503 57 0 0.0 0.0 0.00 0.00 0.00 49 1018.3
20260831073003 57 0 0.0 0.0 0.00 0.00 0.00 50 1018.2
20260831072503 57 0 0.0 0.0 0.00 0.00 0.00 50 1018.2
20260831072004 57 0 0.0 0.0 0.00 0.00 0.00 50 1018.2
20260831071504 57 0 0.0 0.0 0.00 0.00 0.00 51 1018.1
20260831071004 57 0 0.0 0.0 0.00 0.00 0.00 51 1018.0
20260831070504 57 0 0.0 0.0 0.00 0.00 0.00 52 1018.0
20260831070004 58 0 0.0 0.0 0.00 0.00 0.00 52 1018.1
20260831065503 58 0 0.0 0.0 0.00 0.00 0.00 51 1018.0
20260831065003 58 0 0.0 0.0 0.00 0.00 0.00 51 1018.0
20260831064503 58 0 0.0 0.0 0.00 0.00 0.00 51 1018.0